Home   Weather   Kenosha Pass   Past weeks
Flag for USA

Past Weather in Kenosha Pass, Colorado, USA — Yesterday and Last 2 Weeks

Now
52 °F

Clear.


Feels Like: 50 °F
Forecast: 82 / 51 °F
Wind: 6 mph from Southeast

Location: Copper Mountain - Red Cliff Pass

Current Time: Sep 15, 2019 at 4:44:15 am

Latest Report: Sep 15, 2019 at 4:12 am


Visibility: 10 mi

Pressure: 30.65 "Hg

Humidity: 22%

Dew Point: 14 °F

Location of Kenosha PassLocation

Past Weather in Kenosha Pass — Graph

°F

Kenosha Pass Temperature Yesterday

Maximum temperature yesterday: 63 °F (at 4:48 pm)
Minimum temperature yesterday: 45 °F (at 3:30 am)
Average temperature yesterday: 53 °F

High & Low Weather Summary for the Past Weeks

 TemperatureHumidityPressure
High79 °F (Sep 3, 1:12 pm)93% (Sep 11, 10:30 pm)30.85 "Hg (Sep 11, 10:30 pm)
Low34 °F (Sep 11, 10:30 pm)9% (Sep 3, 1:12 pm)30.34 "Hg (Sep 8, 6:32 pm)
Average54 °F42%30.64 "Hg
* Reported Aug 31 3:11 am — Sep 15 3:30 am, Kenosha Pass. Weather by CustomWeather, © 2019

Note: Actual official high and low records may vary slightly from our data, if they occured in-between our weather recording intervals... More about our weather records

Advertising

Kenosha Pass Weather History for the Previous 24 Hours

Scroll right to see more
 ConditionsComfort  
Time TempWeatherWind HumidityBarometerVisibility
3:30 am
Sun, Sep 15
52 °FClear.7 mph22%30.66 "Hg10 mi
3:12 am54 °FClear.8 mph22%30.66 "Hg10 mi
2:49 am54 °FClear.7 mph21%30.67 "Hg10 mi
2:31 am54 °FClear.10 mph21%30.68 "Hg10 mi
2:13 am54 °FClear.6 mph21%30.68 "Hg10 mi
1:30 am54 °FClear.10 mph21%30.68 "Hg10 mi
1:12 am54 °FClear.10 mph21%30.68 "Hg10 mi
12:54 am52 °FClear.3 mph22%30.68 "Hg10 mi
12:30 am52 °FClear.5 mph22%30.68 "Hg10 mi
11:48 pm
Sat, Sep 14
54 °FClear.6 mph21%30.69 "Hg10 mi
11:30 pm52 °FClear.3 mph20%30.69 "Hg10 mi
11:12 pm54 °FClear.6 mph19%30.69 "Hg10 mi
10:48 pm54 °FClear.No wind18%30.69 "Hg10 mi
10:30 pm54 °FClear.No wind18%30.71 "Hg10 mi
10:12 pm54 °FClear.N/A18%30.71 "Hg10 mi
9:48 pm54 °FClear.No wind19%30.71 "Hg10 mi
9:30 pm54 °FClear.6 mph21%30.71 "Hg10 mi
9:12 pm54 °FClear.8 mph19%30.70 "Hg10 mi
8:49 pm54 °FClear.8 mph18%30.70 "Hg10 mi
8:31 pm54 °FClear.9 mph18%30.70 "Hg10 mi
8:13 pm54 °FClear.9 mph18%30.69 "Hg10 mi
7:30 pm54 °FClear.9 mph19%30.69 "Hg10 mi
7:12 pm55 °FSunny.12 mph18%30.69 "Hg10 mi
6:33 pm59 °FSunny.N/A14%30.69 "Hg10 mi
6:09 pm59 °FSunny.N/A13%30.69 "Hg10 mi
5:49 pm59 °FSunny.10 mph13%30.69 "Hg10 mi
5:30 pm59 °FSunny.12 mph14%30.68 "Hg10 mi
5:12 pm61 °FSunny.13 mph13%30.68 "Hg10 mi
4:48 pm63 °FSunny.15 mph12%30.69 "Hg10 mi
4:30 pm61 °FSunny.10 mph12%30.69 "Hg10 mi
4:13 pm61 °FSunny.18 mph12%30.68 "Hg10 mi
3:52 pm61 °FSunny.14 mph12%30.68 "Hg10 mi
3:29 pm61 °FSunny.9 mph12%30.69 "Hg10 mi
3:12 pm61 °FSunny.17 mph12%30.68 "Hg10 mi
2:53 pm61 °FSunny.17 mph15%30.69 "Hg10 mi
2:28 pm59 °FSunny.15 mph16%30.69 "Hg10 mi
2:11 pm61 °FSunny.12 mph19%30.69 "Hg10 mi
1:51 pm59 °FSunny.12 mph17%30.70 "Hg10 mi
1:29 pm59 °FSunny.15 mph17%30.71 "Hg10 mi
1:12 pm59 °FSunny.13 mph18%30.71 "Hg10 mi
12:53 pm59 °FSunny.16 mph17%30.71 "Hg10 mi
12:29 pm59 °FSunny.13 mph20%30.72 "Hg10 mi
12:12 pm59 °FSunny.15 mph20%30.72 "Hg10 mi
11:52 am59 °FSunny.14 mph18%30.72 "Hg10 mi
11:29 am57 °FSunny.7 mph21%30.72 "Hg10 mi
11:12 am55 °FSunny.10 mph23%30.72 "Hg10 mi
10:54 am54 °FSunny.10 mph24%30.71 "Hg10 mi
10:30 am54 °FSunny.8 mph24%30.71 "Hg10 mi
10:12 am54 °FSunny.10 mph24%30.71 "Hg10 mi
9:54 am54 °FSunny.12 mph24%30.71 "Hg10 mi
9:30 am52 °FSunny.8 mph26%30.70 "Hg10 mi
9:12 am52 °FSunny.7 mph26%30.70 "Hg10 mi
8:54 am52 °FSunny.7 mph26%30.69 "Hg10 mi
8:30 am52 °FSunny.N/A20%30.69 "Hg10 mi
8:12 am50 °FSunny.10 mph22%30.68 "Hg10 mi
7:31 am46 °FSunny.12 mph27%30.68 "Hg10 mi
6:52 am45 °FSunny.8 mph31%30.68 "Hg10 mi
6:33 am45 °FClear.10 mph29%30.68 "Hg10 mi
6:08 am45 °FClear.8 mph31%30.67 "Hg10 mi
5:48 am45 °FClear.10 mph29%30.67 "Hg10 mi
5:30 am45 °FClear.3 mph29%30.67 "Hg10 mi
5:12 am45 °FClear.10 mph29%30.67 "Hg10 mi
4:48 am45 °FClear.15 mph29%30.67 "Hg10 mi
4:30 am45 °FClear.7 mph29%30.67 "Hg10 mi
4:12 am45 °FClear.13 mph29%30.67 "Hg10 mi
Weather by CustomWeather, © 2019

See weather overview